| time (UTC) | temp F | wind direction | speed knots | gust knots | rain 1hr in | rain 24hr in | rain mn in | humidity % | barometer mb |
| 20260503022049 | 43 | 360 | 2.6 | 7.8 | 0.03 | 0.22 | 0.13 | 93 | 1014.8 |
| 20260503021555 | 43 | 44 | 2.6 | 7.8 | 0.03 | 0.22 | 0.12 | 93 | 1014.9 |
| 20260503021047 | 43 | 19 | 2.6 | 7.8 | 0.03 | 0.22 | 0.12 | 93 | 1014.7 |
| 20260503020549 | 43 | 15 | 2.6 | 7.8 | 0.03 | 0.21 | 0.11 | 93 | 1014.7 |
| 20260503020058 | 43 | 69 | 2.6 | 10.4 | 0.03 | 0.21 | 0.11 | 93 | 1014.8 |
| 20260503015547 | 43 | 14 | 1.7 | 10.4 | 0.04 | 0.21 | 0.11 | 93 | 1014.7 |
| 20260503015046 | 43 | 5 | 1.7 | 10.4 | 0.05 | 0.20 | 0.11 | 93 | 1014.7 |
| 20260503014553 | 43 | 5 | 1.7 | 7.0 | 0.06 | 0.20 | 0.11 | 93 | 1014.8 |
| 20260503014050 | 43 | 348 | 1.7 | 7.0 | 0.06 | 0.19 | 0.10 | 93 | 1014.8 |
| 20260503013548 | 43 | 92 | 1.7 | 7.8 | 0.07 | 0.19 | 0.10 | 93 | 1014.8 |
| 20260503013105 | 43 | 333 | 1.7 | 10.4 | 0.07 | 0.19 | 0.10 | 93 | 1014.9 |
| 20260503012548 | 43 | 38 | 2.6 | 10.4 | 0.07 | 0.18 | 0.09 | 93 | 1014.9 |
| 20260503012047 | 43 | 33 | 2.6 | 9.6 | 0.07 | 0.18 | 0.09 | 92 | 1015.0 |
| 20260503011607 | 43 | 5 | 1.7 | 7.8 | 0.08 | 0.18 | 0.09 | 92 | 1014.9 |
| 20260503011047 | 43 | 55 | 1.7 | 7.0 | 0.07 | 0.18 | 0.08 | 92 | 1015.0 |
| 20260503010549 | 43 | 10 | 1.7 | 7.8 | 0.07 | 0.18 | 0.08 | 92 | 1015.0 |
| 20260503010121 | 43 | 46 | 1.7 | 7.8 | 0.07 | 0.17 | 0.07 | 92 | 1015.1 |
| 20260503005547 | 43 | 61 | 0.9 | 7.8 | 0.06 | 0.16 | 0.07 | 92 | 1015.0 |
| 20260503005050 | 43 | 71 | 0.9 | 3.5 | 0.04 | 0.14 | 0.05 | 92 | 1015.1 |
| 20260503004557 | 43 | 69 | 0.9 | 7.0 | 0.03 | 0.14 | 0.04 | 92 | 1015.1 |
| 20260503004050 | 43 | 0 | 0.9 | 7.0 | 0.03 | 0.13 | 0.03 | 92 | 1015.0 |
| 20260503003549 | 43 | 57 | 1.7 | 7.0 | 0.03 | 0.12 | 0.03 | 92 | 1015.1 |
| 20260503003118 | 43 | 0 | 1.7 | 6.1 | 0.02 | 0.11 | 0.02 | 92 | 1015.1 |
| 20260503002547 | 43 | 0 | 1.7 | 5.2 | 0.01 | 0.11 | 0.01 | 92 | 1015.2 |
| 20260503002047 | 43 | 75 | 0.9 | 4.3 | 0.01 | 0.11 | 0.01 | 92 | 1015.2 |
| 20260503001553 | 43 | 72 | 0.9 | 4.3 | 0.00 | 0.10 | 0.00 | 92 | 1015.2 |
| 20260503001047 | 43 | 32 | 0.9 | 6.1 | 0.00 | 0.10 | 0.00 | 92 | 1015.3 |
| 20260503000546 | 43 | 62 | 1.7 | 6.1 | 0.00 | 0.10 | 0.00 | 91 | 1015.3 |
| 20260503000106 | 43 | 82 | 0.9 | 7.8 | 0.00 | 0.10 | 0.00 | 91 | 1015.3 |
| 20260502235547 | 43 | 98 | 1.7 | 9.6 | 0.00 | 0.10 | 0.00 | 91 | 1015.4 |
| 20260502235047 | 43 | 108 | 1.7 | 9.6 | 0.00 | 0.10 | 0.00 | 91 | 1015.3 |
| 20260502234603 | 43 | 78 | 0.9 | 9.6 | 0.00 | 0.10 | 0.00 | 91 | 1015.3 |
| 20260502234047 | 44 | 92 | 3.5 | 7.0 | 0.00 | 0.09 | 0.00 | 91 | 1015.4 |
| 20260502233547 | 44 | 94 | 0.9 | 7.8 | 0.00 | 0.09 | 0.00 | 91 | 1015.3 |
| 20260502233054 | 44 | 89 | 1.7 | 7.8 | 0.00 | 0.09 | 0.00 | 91 | 1015.3 |
| 20260502232550 | 44 | 46 | 0.0 | 6.1 | 0.00 | 0.09 | 0.00 | 91 | 1015.4 |
| 20260502232047 | 44 | 0 | 1.7 | 7.0 | 0.00 | 0.09 | 0.00 | 91 | 1015.3 |
| 20260502231556 | 44 | 0 | 1.7 | 7.0 | 0.00 | 0.09 | 0.00 | 91 | 1015.3 |
| 20260502231048 | 44 | 0 | 0.9 | 6.1 | 0.00 | 0.09 | 0.00 | 91 | 1015.3 |
| 20260502230547 | 44 | 0 | 0.9 | 7.0 | 0.00 | 0.09 | 0.00 | 91 | 1015.4 |
| 20260502230058 | 44 | 69 | 0.9 | 7.0 | 0.00 | 0.09 | 0.00 | 90 | 1015.4 |
| 20260502225546 | 44 | 107 | 1.7 | 6.1 | 0.00 | 0.09 | 0.09 | 91 | 1015.4 |
| 20260502225047 | 44 | 117 | 1.7 | 6.1 | 0.00 | 0.09 | 0.09 | 90 | 1015.5 |
| 20260502224601 | 44 | 116 | 1.7 | 6.1 | 0.00 | 0.09 | 0.09 | 90 | 1015.5 |
| 20260502224047 | 44 | 88 | 0.9 | 7.0 | 0.00 | 0.09 | 0.09 | 90 | 1015.4 |
| 20260502223547 | 44 | 0 | 0.0 | 7.0 | 0.00 | 0.09 | 0.09 | 91 | 1015.4 |
| 20260502223051 | 44 | 76 | 2.6 | 7.0 | 0.00 | 0.09 | 0.09 | 90 | 1015.4 |
| 20260502222550 | 44 | 13 | 0.9 | 4.3 | 0.00 | 0.09 | 0.09 | 90 | 1015.6 |
| 20260502222047 | 44 | 82 | 0.9 | 5.2 | 0.00 | 0.09 | 0.09 | 90 | 1015.4 |
| 20260502221553 | 44 | 0 | 0.9 | 7.8 | 0.00 | 0.09 | 0.09 | 90 | 1015.5 |
| 20260502221047 | 44 | 0 | 1.7 | 7.8 | 0.00 | 0.09 | 0.09 | 90 | 1015.4 |
| 20260502220549 | 44 | 38 | 0.9 | 6.1 | 0.00 | 0.09 | 0.09 | 90 | 1015.3 |
| 20260502220053 | 44 | 50 | 0.9 | 11.3 | 0.00 | 0.09 | 0.09 | 90 | 1015.5 |
| 20260502215546 | 44 | 76 | 3.5 | 11.3 | 0.00 | 0.10 | 0.09 | 89 | 1015.4 |
| 20260502215046 | 44 | 74 | 0.9 | 7.8 | 0.00 | 0.10 | 0.09 | 89 | 1015.5 |
| 20260502214605 | 44 | 80 | 1.7 | 7.8 | 0.00 | 0.10 | 0.09 | 89 | 1015.5 |
| 20260502214047 | 44 | 67 | 0.9 | 6.1 | 0.00 | 0.10 | 0.09 | 89 | 1015.5 |
| 20260502213547 | 44 | 71 | 0.9 | 7.0 | 0.00 | 0.10 | 0.09 | 89 | 1015.5 |
| 20260502213054 | 44 | 15 | 1.7 | 7.0 | 0.00 | 0.10 | 0.09 | 89 | 1015.5 |
| 20260502212548 | 44 | 22 | 1.7 | 7.8 | 0.00 | 0.10 | 0.09 | 89 | 1015.5 |
| 20260502212047 | 44 | 12 | 0.9 | 7.8 | 0.00 | 0.10 | 0.09 | 89 | 1015.4 |
| 20260502211602 | 44 | 5 | 1.7 | 8.7 | 0.00 | 0.10 | 0.09 | 89 | 1015.6 |
| 20260502211047 | 44 | 351 | 1.7 | 8.7 | 0.00 | 0.10 | 0.09 | 89 | 1015.7 |
| 20260502210548 | 44 | 31 | 1.7 | 7.0 | 0.00 | 0.10 | 0.09 | 89 | 1015.6 |
| 20260502210054 | 44 | 28 | 0.9 | 7.0 | 0.00 | 0.10 | 0.09 | 89 | 1015.5 |
| 20260502205547 | 44 | 11 | 1.7 | 7.8 | 0.00 | 0.19 | 0.09 | 89 | 1015.5 |
| 20260502205048 | 44 | 36 | 1.7 | 9.6 | 0.00 | 0.19 | 0.09 | 89 | 1015.5 |
| 20260502204554 | 44 | 12 | 2.6 | 9.6 | 0.00 | 0.19 | 0.09 | 89 | 1015.7 |
| 20260502204047 | 44 | 5 | 1.7 | 9.6 | 0.00 | 0.19 | 0.09 | 89 | 1015.5 |
| 20260502203547 | 44 | 75 | 2.6 | 8.7 | 0.00 | 0.19 | 0.09 | 89 | 1015.5 |
| 20260502203105 | 44 | 93 | 1.7 | 5.2 | 0.00 | 0.19 | 0.09 | 89 | 1015.5 |
| 20260502202547 | 44 | 51 | 0.9 | 5.2 | 0.00 | 0.19 | 0.09 | 89 | 1015.6 |
| 20260502202047 | 44 | 10 | 0.9 | 7.8 | 0.00 | 0.19 | 0.09 | 89 | 1015.5 |
| 20260502201606 | 44 | 49 | 1.7 | 7.8 | 0.00 | 0.19 | 0.09 | 89 | 1015.4 |
| 20260502201045 | 44 | 98 | 1.7 | 7.8 | 0.00 | 0.19 | 0.09 | 89 | 1015.5 |
| 20260502200548 | 44 | 14 | 2.6 | 7.8 | 0.00 | 0.19 | 0.09 | 89 | 1015.5 |
| 20260502200050 | 45 | 79 | 2.6 | 6.1 | 0.00 | 0.19 | 0.09 | 89 | 1015.6 |
| 20260502195547 | 45 | 22 | 0.9 | 7.8 | 0.00 | 0.19 | 0.09 | 89 | 1015.4 |
| 20260502195047 | 45 | 26 | 2.6 | 8.7 | 0.00 | 0.19 | 0.09 | 89 | 1015.4 |
| 20260502194552 | 45 | 13 | 0.9 | 10.4 | 0.00 | 0.19 | 0.09 | 89 | 1015.2 |
| 20260502194047 | 45 | 42 | 3.5 | 10.4 | 0.00 | 0.19 | 0.09 | 88 | 1015.2 |
| 20260502193549 | 45 | 40 | 2.6 | 7.8 | 0.00 | 0.19 | 0.09 | 88 | 1015.1 |
| 20260502193052 | 45 | 11 | 3.5 | 9.6 | 0.00 | 0.19 | 0.09 | 88 | 1015.1 |
| 20260502192545 | 45 | 65 | 3.5 | 9.6 | 0.00 | 0.19 | 0.09 | 88 | 1015.0 |
| 20260502192048 | 45 | 329 | 2.6 | 9.6 | 0.00 | 0.19 | 0.09 | 88 | 1014.9 |
| 20260502191553 | 45 | 71 | 2.6 | 10.4 | 0.00 | 0.19 | 0.09 | 87 | 1014.8 |
| 20260502191048 | 45 | 54 | 3.5 | 10.4 | 0.00 | 0.19 | 0.09 | 87 | 1014.7 |
| 20260502190547 | 46 | 0 | 3.5 | 10.4 | 0.00 | 0.19 | 0.09 | 87 | 1014.8 |
| 20260502190053 | 46 | 5 | 1.7 | 12.2 | 0.00 | 0.19 | 0.09 | 87 | 1014.7 |
| 20260502185547 | 46 | 61 | 2.6 | 12.2 | 0.00 | 0.19 | 0.09 | 86 | 1014.4 |
| 20260502185048 | 46 | 48 | 2.6 | 7.8 | 0.00 | 0.19 | 0.09 | 86 | 1014.4 |
| 20260502184552 | 47 | 20 | 2.6 | 7.8 | 0.00 | 0.19 | 0.09 | 85 | 1014.3 |
| 20260502184048 | 47 | 44 | 3.5 | 7.8 | 0.00 | 0.19 | 0.09 | 85 | 1014.5 |
| 20260502183546 | 48 | 38 | 2.6 | 8.7 | 0.00 | 0.19 | 0.09 | 84 | 1014.5 |
| 20260502183057 | 48 | 19 | 3.5 | 8.7 | 0.00 | 0.19 | 0.09 | 83 | 1014.5 |
| 20260502182549 | 49 | 24 | 3.5 | 8.7 | 0.00 | 0.19 | 0.09 | 82 | 1014.3 |
| 20260502182049 | 50 | 30 | 1.7 | 8.7 | 0.00 | 0.19 | 0.09 | 79 | 1014.4 |
| 20260502181556 | 51 | 27 | 1.7 | 5.2 | 0.00 | 0.19 | 0.09 | 77 | 1014.3 |
| 20260502181049 | 51 | 0 | 0.0 | 1.7 | 0.00 | 0.19 | 0.09 | 76 | 1014.2 |
| 20260502180547 | 52 | 234 | 0.0 | 4.3 | 0.00 | 0.19 | 0.09 | 76 | 1014.1 |
| 20260502180104 | 52 | 234 | 0.0 | 4.3 | 0.00 | 0.19 | 0.09 | 75 | 1014.1 |
| 20260502164051 | 53 | 242 | 1.7 | 6.1 | 0.00 | 0.26 | 0.09 | 72 | 1014.1 |
| 20260502163550 | 53 | 252 | 0.9 | 7.0 | 0.00 | 0.26 | 0.09 | 72 | 1014.1 |
| 20260502163110 | 53 | 221 | 3.5 | 7.8 | 0.00 | 0.26 | 0.09 | 70 | 1013.9 |
| 20260502162550 | 53 | 216 | 3.5 | 7.8 | 0.00 | 0.26 | 0.09 | 70 | 1014.1 |
| 20260502162049 | 54 | 249 | 4.3 | 8.7 | 0.00 | 0.26 | 0.09 | 69 | 1014.0 |
| 20260502161555 | 54 | 260 | 3.5 | 9.6 | 0.00 | 0.26 | 0.09 | 71 | 1014.1 |
| 20260502161049 | 55 | 239 | 5.2 | 10.4 | 0.00 | 0.26 | 0.09 | 71 | 1013.9 |
| 20260502160550 | 55 | 235 | 5.2 | 10.4 | 0.00 | 0.26 | 0.09 | 73 | 1014.0 |
| 20260502152050 | 54 | 238 | 3.5 | 8.7 | 0.00 | 0.26 | 0.09 | 76 | 1014.0 |
| 20260502151557 | 54 | 246 | 2.6 | 8.7 | 0.00 | 0.26 | 0.09 | 75 | 1014.2 |
| 20260502151049 | 54 | 217 | 3.5 | 8.7 | 0.00 | 0.26 | 0.09 | 74 | 1014.1 |
| 20260502150549 | 54 | 234 | 3.5 | 7.8 | 0.00 | 0.26 | 0.09 | 74 | 1014.1 |
| 20260502130548 | 51 | 313 | 0.9 | 5.2 | 0.09 | 0.27 | 0.09 | 87 | 1014.6 |
| 20260502123545 | 53 | 246 | 1.7 | 11.3 | 0.07 | 0.25 | 0.07 | 80 | 1014.5 |
| 20260502123051 | 54 | 252 | 6.1 | 11.3 | 0.03 | 0.21 | 0.03 | 76 | 1014.7 |
| 20260502122548 | 55 | 242 | 0.9 | 5.2 | 0.00 | 0.18 | 0.00 | 75 | 1014.6 |
| 20260502122047 | 55 | 307 | 0.9 | 6.1 | 0.00 | 0.18 | 0.00 | 74 | 1014.4 |
| 20260502121554 | 56 | 300 | 1.7 | 7.0 | 0.00 | 0.18 | 0.00 | 72 | 1014.4 |
| 20260502121047 | 58 | 30 | 2.6 | 9.6 | 0.00 | 0.18 | 0.00 | 68 | 1014.5 |
| 20260502120546 | 58 | 198 | 4.3 | 9.6 | 0.00 | 0.18 | 0.00 | 69 | 1014.5 |
| 20260502120108 | 58 | 256 | 1.7 | 7.8 | 0.00 | 0.18 | 0.00 | 66 | 1014.5 |
| 20260502115550 | 58 | 221 | 2.6 | 7.8 | 0.00 | 0.18 | 0.00 | 67 | 1014.5 |
| 20260502115048 | 57 | 190 | 1.7 | 9.6 | 0.00 | 0.18 | 0.00 | 68 | 1014.4 |
| 20260502114634 | 57 | 196 | 4.3 | 9.6 | 0.00 | 0.18 | 0.00 | 67 | 1014.5 |
| 20260502114050 | 57 | 215 | 3.5 | 7.8 | 0.00 | 0.18 | 0.00 | 68 | 1014.5 |
| 20260502113549 | 57 | 252 | 1.7 | 8.7 | 0.00 | 0.18 | 0.00 | 70 | 1014.5 |
| 20260502113051 | 57 | 258 | 3.5 | 9.6 | 0.00 | 0.18 | 0.00 | 69 | 1014.5 |
| 20260502112550 | 57 | 239 | 4.3 | 9.6 | 0.00 | 0.18 | 0.00 | 70 | 1014.5 |
| 20260502112050 | 56 | 255 | 5.2 | 8.7 | 0.00 | 0.18 | 0.00 | 71 | 1014.6 |
| 20260502111554 | 57 | 188 | 3.5 | 10.4 | 0.00 | 0.18 | 0.00 | 70 | 1014.7 |
| 20260502111050 | 57 | 248 | 5.2 | 10.4 | 0.00 | 0.18 | 0.00 | 70 | 1014.7 |
| 20260502110550 | 57 | 217 | 1.7 | 9.6 | 0.00 | 0.18 | 0.00 | 72 | 1014.7 |
| 20260502110055 | 57 | 256 | 5.2 | 9.6 | 0.00 | 0.18 | 0.00 | 69 | 1014.8 |
| 20260502105555 | 58 | 223 | 4.3 | 8.7 | 0.00 | 0.18 | 0.00 | 70 | 1015.0 |
| 20260502105050 | 57 | 204 | 4.3 | 8.7 | 0.00 | 0.18 | 0.00 | 71 | 1014.9 |
| 20260502104554 | 57 | 275 | 3.5 | 7.8 | 0.00 | 0.18 | 0.00 | 72 | 1014.9 |
| 20260502104052 | 56 | 179 | 2.6 | 8.7 | 0.00 | 0.18 | 0.00 | 73 | 1015.0 |
| 20260502103550 | 57 | 249 | 4.3 | 8.7 | 0.00 | 0.18 | 0.00 | 72 | 1014.9 |
| 20260502103050 | 56 | 238 | 2.6 | 9.6 | 0.00 | 0.18 | 0.00 | 74 | 1015.0 |
| 20260502102550 | 56 | 240 | 4.3 | 9.6 | 0.00 | 0.18 | 0.00 | 74 | 1015.1 |
| 20260502102049 | 55 | 216 | 3.5 | 8.7 | 0.00 | 0.18 | 0.00 | 74 | 1015.1 |
| 20260502101606 | 55 | 182 | 3.5 | 8.7 | 0.00 | 0.18 | 0.00 | 75 | 1015.1 |
| 20260502101046 | 55 | 208 | 3.5 | 10.4 | 0.00 | 0.18 | 0.00 | 75 | 1015.1 |
| 20260502100550 | 55 | 207 | 4.3 | 10.4 | 0.00 | 0.18 | 0.00 | 75 | 1015.1 |
| 20260502100108 | 55 | 238 | 4.3 | 10.4 | 0.00 | 0.18 | 0.00 | 76 | 1015.2 |
| 20260502091050 | 53 | 234 | 5.2 | 11.3 | 0.00 | 0.18 | 0.00 | 78 | 1015.2 |
| 20260502090553 | 53 | 202 | 4.3 | 9.6 | 0.00 | 0.18 | 0.00 | 79 | 1015.2 |
| 20260502071048 | 47 | 233 | 1.7 | 6.1 | 0.00 | 0.18 | 0.00 | 90 | 1015.1 |
| 20260502070547 | 47 | 247 | 2.6 | 6.1 | 0.00 | 0.18 | 0.00 | 91 | 1015.1 |
| 20260502065550 | 46 | 239 | 2.6 | 4.3 | 0.00 | 0.18 | 0.00 | 92 | 1015.0 |
| 20260502065049 | 46 | 195 | 0.9 | 3.5 | 0.00 | 0.18 | 0.00 | 92 | 1015.1 |
| 20260502064615 | 46 | 0 | 0.0 | 2.6 | 0.00 | 0.18 | 0.00 | 93 | 1015.2 |
| 20260502064050 | 45 | 183 | 0.0 | 1.7 | 0.00 | 0.18 | 0.00 | 93 | 1015.2 |
| 20260502063550 | 45 | 0 | 0.0 | 1.7 | 0.00 | 0.18 | 0.00 | 93 | 1015.2 |
| 20260502063111 | 45 | 0 | 0.0 | 1.7 | 0.00 | 0.18 | 0.00 | 93 | 1015.2 |
| 20260502062555 | 45 | 0 | 0.0 | 0.9 | 0.00 | 0.18 | 0.00 | 93 | 1015.2 |
| 20260502062049 | 44 | 183 | 0.0 | 0.9 | 0.00 | 0.18 | 0.00 | 94 | 1015.1 |
| 20260502061554 | 43 | 0 | 0.0 | 0.0 | 0.00 | 0.18 | 0.00 | 93 | 1015.1 |
| 20260502061049 | 43 | 0 | 0.0 | 0.0 | 0.00 | 0.18 | 0.00 | 93 | 1015.2 |
| 20260502060554 | 43 | 0 | 0.0 | 0.0 | 0.00 | 0.18 | 0.00 | 93 | 1015.1 |
| 20260502060053 | 43 | 0 | 0.0 | 0.0 | 0.00 | 0.18 | 0.00 | 93 | 1015.2 |
| 20260502055552 | 43 | 0 | 0.0 | 0.0 | 0.00 | 0.18 | 0.00 | 94 | 1015.2 |
| 20260502055051 | 42 | 0 | 0.0 | 0.0 | 0.00 | 0.18 | 0.00 | 94 | 1015.1 |
| 20260502054552 | 42 | 0 | 0.0 | 0.0 | 0.00 | 0.18 | 0.00 | 94 | 1015.1 |
| 20260502054050 | 42 | 0 | 0.0 | 0.0 | 0.00 | 0.18 | 0.00 | 94 | 1015.1 |
| 20260502053547 | 41 | 0 | 0.0 | 0.0 | 0.00 | 0.18 | 0.00 | 93 | 1015.1 |
| 20260502053057 | 41 | 0 | 0.0 | 0.0 | 0.00 | 0.18 | 0.00 | 93 | 1015.1 |
| 20260502052549 | 41 | 0 | 0.0 | 0.0 | 0.00 | 0.18 | 0.00 | 93 | 1015.0 |
| 20260502052048 | 41 | 0 | 0.0 | 0.0 | 0.00 | 0.18 | 0.00 | 93 | 1015.1 |
| 20260502051551 | 42 | 0 | 0.0 | 0.0 | 0.00 | 0.18 | 0.00 | 93 | 1015.1 |
| 20260502051051 | 41 | 0 | 0.0 | 0.0 | 0.00 | 0.18 | 0.00 | 93 | 1015.0 |
| 20260502050550 | 41 | 0 | 0.0 | 0.0 | 0.00 | 0.18 | 0.00 | 93 | 1015.1 |
| 20260502050056 | 41 | 0 | 0.0 | 0.0 | 0.00 | 0.18 | 0.00 | 93 | 1015.1 |
| 20260502045550 | 41 | 0 | 0.0 | 0.0 | 0.00 | 0.18 | 0.00 | 93 | 1015.1 |
| 20260502045047 | 41 | 0 | 0.0 | 0.0 | 0.00 | 0.18 | 0.00 | 93 | 1015.0 |
| 20260502044557 | 42 | 0 | 0.0 | 0.0 | 0.00 | 0.18 | 0.00 | 93 | 1014.8 |
| 20260502044047 | 42 | 0 | 0.0 | 0.0 | 0.00 | 0.18 | 0.00 | 93 | 1014.9 |
| 20260502043549 | 42 | 0 | 0.0 | 0.0 | 0.00 | 0.18 | 0.00 | 94 | 1015.0 |
| 20260502043123 | 42 | 0 | 0.0 | 0.0 | 0.00 | 0.18 | 0.00 | 93 | 1014.9 |
| 20260502042550 | 42 | 0 | 0.0 | 0.0 | 0.00 | 0.18 | 0.00 | 93 | 1014.9 |
| 20260502042050 | 41 | 0 | 0.0 | 0.0 | 0.00 | 0.18 | 0.00 | 93 | 1014.9 |
| 20260502041600 | 41 | 0 | 0.0 | 0.0 | 0.00 | 0.18 | 0.00 | 93 | 1014.9 |
| 20260502041050 | 41 | 0 | 0.0 | 0.0 | 0.00 | 0.18 | 0.00 | 93 | 1015.0 |
| 20260502040549 | 41 | 0 | 0.0 | 0.0 | 0.00 | 0.18 | 0.00 | 94 | 1015.0 |
| 20260502040051 | 41 | 0 | 0.0 | 0.0 | 0.00 | 0.18 | 0.00 | 93 | 1015.0 |
| 20260502035547 | 41 | 0 | 0.0 | 0.0 | 0.00 | 0.18 | 0.00 | 93 | 1015.1 |
| 20260502035047 | 41 | 0 | 0.0 | 0.0 | 0.00 | 0.18 | 0.00 | 93 | 1015.1 |
| 20260502034550 | 41 | 0 | 0.0 | 0.0 | 0.00 | 0.18 | 0.00 | 93 | 1015.1 |
| 20260502034050 | 41 | 0 | 0.0 | 0.0 | 0.00 | 0.18 | 0.00 | 93 | 1015.2 |
| 20260502033549 | 41 | 0 | 0.0 | 0.0 | 0.00 | 0.18 | 0.00 | 93 | 1015.3 |
| 20260502033053 | 41 | 0 | 0.0 | 0.0 | 0.00 | 0.18 | 0.00 | 93 | 1015.3 |
| 20260502032550 | 41 | 0 | 0.0 | 0.0 | 0.00 | 0.18 | 0.00 | 93 | 1015.4 |
| 20260502032052 | 41 | 0 | 0.0 | 0.0 | 0.00 | 0.18 | 0.00 | 93 | 1015.4 |
| 20260502031552 | 41 | 0 | 0.0 | 0.0 | 0.00 | 0.18 | 0.00 | 93 | 1015.4 |
| 20260502031050 | 41 | 0 | 0.0 | 0.0 | 0.00 | 0.18 | 0.00 | 93 | 1015.5 |
| 20260502030549 | 41 | 0 | 0.0 | 0.0 | 0.00 | 0.18 | 0.00 | 93 | 1015.6 |
| 20260502030057 | 41 | 0 | 0.0 | 0.0 | 0.00 | 0.18 | 0.00 | 93 | 1015.5 |
| 20260502025549 | 41 | 0 | 0.0 | 0.0 | 0.00 | 0.18 | 0.00 | 93 | 1015.7 |
| 20260502025049 | 41 | 0 | 0.0 | 0.0 | 0.00 | 0.18 | 0.00 | 93 | 1015.6 |
| 20260502024554 | 41 | 0 | 0.0 | 0.0 | 0.00 | 0.18 | 0.00 | 93 | 1015.6 |
| 20260502024050 | 41 | 0 | 0.0 | 0.0 | 0.00 | 0.18 | 0.00 | 93 | 1015.7 |
| 20260502023550 | 41 | 0 | 0.0 | 0.0 | 0.00 | 0.18 | 0.00 | 93 | 1015.7 |
| 20260502023059 | 42 | 0 | 0.0 | 0.0 | 0.00 | 0.18 | 0.00 | 93 | 1015.6 |
| 20260502022549 | 42 | 0 | 0.0 | 0.0 | 0.00 | 0.18 | 0.00 | 93 | 1015.7 |